Location: Bailleul
(50.3375°N, 2.8513°E)
Time: 09:22:47
(UTC+00:00)

Meteor 1-4 Rocket - Pass Details

Date: 16 June 2021
Orbit: 447 x 499 km, 81.2° (Epoch: 26 July)

Event Time Altitude Azimuth Distance (km) Brightness Sun altitude
Rises 23:37:40 0° 348° (NNW) 2,500 7.9 -16.2°
Reaches altitude 10° 23:39:46 10° 350° (N) 1,612 6.5 -16.3°
Maximum altitude 23:43:17 78° 77° (ENE) 471 2.4 -16.3°
Enters shadow 23:44:30 38° 157° (SSE) 712 2.9 -16.3°
